Location: Braughing
(51.9000°N, 0.0167°E)
Time: 06:29:32
(UTC+00:00)

Daily predictions for brighter satellites

Satellite Brightness Start Highest point End
(mag) Time Altitude Azimuth Time Altitude Azimuth Time Altitude Azimuth
Terra 1.9 21:03:48 10° SSE 21:08:31 86° WSW 21:13:17 10° NNW
Cosmos 2360 Rocket 2.3 21:04:02 10° NNW 21:09:46 86° WSW 21:15:26 10° SSE
Cosmos 1315 Rocket 4.4 21:06:57 10° SE 21:09:49 19° E 21:12:43 10° NE
ARIANE 5 R/B 4.5 21:09:15 10° ESE 21:12:17 19° ENE 21:15:19 10° NNE
In-Cosmos 22 4.4 21:07:37 10° SSW 21:13:14 80° WNW 21:18:44 10° N
ERS-1 Rocket 3.3 21:10:34 10° S 21:15:34 66° WSW 21:20:35 10° NNW
Cosmos 841 Rocket 4.3 21:11:30 10° NW 21:16:33 48° WSW 21:21:35 10° S
Cosmos 1455 3.5 21:14:43 10° NNE 21:17:38 24° ENE 21:20:33 10° SE
S3M 4.4 21:12:38 10° NNW 21:18:58 67° W 21:25:12 10° S
SL-27 R/B 2.2 21:17:35 10° S 21:20:14 45° ESE 21:22:57 10° NE
SL-16 R/B 3.3 21:17:39 10° NW 21:22:53 39° WSW 21:28:04 10° S
OPS 8737 4.0 21:20:56 10° NW 21:23:52 88° WSW 21:26:56 10° SE
BREEZE-M DEB (TANK) 3.9 21:21:41 10° SW 21:25:44 58° SSE 21:40:39 10° ENE
USA 245 4.4 21:25:10 10° S 21:28:48 47° W 21:33:23 10° NNW
Cosmos 2333 Rocket 2.5 21:23:34 10° NW 21:29:17 69° WSW 21:35:01 10° SSE
Cosmos 2082 Rocket 4.3 21:24:20 10° WSW 21:29:29 33° NW 21:34:37 10° NNE
Cosmos 807 4.3 21:26:45 10° S 21:29:51 55° E 21:32:44 10° NNE
Aureole 3 4.0 21:26:14 10° SSE 21:30:15 52° E 21:35:17 10° NNE
Cosmos 2266 Rocket 4.4 21:24:06 10° SSW 21:30:27 73° WNW 21:36:53 10° N
Meteor 1-23 Rocket 4.4 21:25:54 10° SSW 21:31:36 84° WNW 21:37:23 10° NNE
Spot 2 Rocket 3.9 21:26:44 10° S 21:31:45 64° WSW 21:36:50 10° NNW
Cosmos 1346 Rocket 3.0 21:27:54 10° NNW 21:31:46 69° W 21:35:35 10° S
SL-14 R/B 3.2 21:28:23 10° S 21:32:10 88° WNW 21:36:00 10° N
Cosmos 2228 Rocket 3.2 21:32:38 10° S 21:37:13 87° WNW 21:41:49 10° N
Cosmos 1655 Rocket 4.2 21:34:49 10° S 21:41:14 84° W 21:47:41 10° N
ATLAS 2AS CENTAUR R/B 3.0 21:35:02 10° NW 21:41:42 57° SW 21:47:58 11° SSE
COSMOS 2455 4.4 21:38:30 10° SE 21:42:05 17° ESE 21:45:46 10° ENE
Landsat 5 3.6 21:38:51 10° NNE 21:42:49 53° ESE 21:46:53 10° S
Cosmos 1833 4.2 21:39:03 10° SSW 21:44:35 64° ESE 21:50:10 10° NE
Cosmos 2237 Rocket 3.7 21:40:41 10° NNW 21:45:39 30° NE 21:50:35 10° ESE
Orbus 7S? 4.5 21:42:48 10° W 21:46:44 40° NNW 21:49:23 10° ENE
Meteor 1-4 Rocket 2.2 21:44:36 11° S 21:47:26 55° E 21:50:24 10° NNE
Cosmos 1242 Rocket 3.5 21:47:48 14° SE 21:49:15 20° E 21:51:23 10° NE
USA 281 3.6 21:43:52 10° SE 21:50:16 58° NE 21:56:43 10° NNW
Cosmos 2322 3.9 21:45:25 10° NNW 21:51:07 69° ENE 21:56:21 12° SE
Meteor 1-16 Rocket 4.4 21:45:30 10° NNW 21:51:28 85° WSW 21:57:16 11° S
RESURS DK-1 4.4 21:49:25 10° WNW 21:52:21 19° WSW 21:55:16 10° SSW
Okean 3 3.4 21:48:54 10° S 21:53:03 84° E 21:57:15 10° NNE
Kosmos-1783 4.3 21:50:08 10° NW 21:53:32 78° SW 22:00:04 12° SE
Cosmos 839 Rocket 4.3 21:48:02 10° NW 21:55:02 67° WSW 22:00:35 13° SSE
Spot 1 4.2 21:50:58 10° NNE 21:55:32 75° ESE 22:00:19 10° S
Ariane Rocket 4.0 21:51:55 10° S 21:56:45 43° W 22:01:36 10° NNW
Cosmos 1300 4.2 21:54:16 10° NNW 21:57:24 29° W 22:00:31 10° SSW
ALOS 2 4.5 21:58:39 10° ESE 22:01:53 21° ENE 22:05:08 10° NNE
H-2A R/B 3.9 21:58:24 10° ESE 22:02:02 29° ENE 22:05:42 10° N
MetOp-A 4.2 21:58:04 11° S 22:03:04 73° WSW 22:08:20 10° NNW
Cosmos 1703 Rocket 4.0 21:59:28 13° SSE 22:03:10 46° E 22:07:26 10° NNE
Cosmos 1862 Rocket 4.0 21:59:35 10° SSW 22:03:58 65° WNW 22:08:24 10° N
Cosmos 2322 Rocket 3.6 21:59:29 10° NW 22:04:22 30° WSW 22:09:14 10° SSW
SL-4 R/B 1.9 22:03:44 10° W 22:07:37 72° SSW 22:11:47 10° ESE
Cosmos 2297 Rocket 3.8 22:11:53 13° SE 22:14:49 18° E 22:18:32 10° ENE
SJ 16-02 1.5 22:12:21 10° SSW 22:16:39 74° WNW 22:21:01 10° NNE
SeaSat 1 4.3 22:15:35 10° SSW 22:19:17 21° WSW 22:22:59 10° WNW
SL-08 R/B 4.4 22:13:35 11° S 22:19:30 77° E 22:25:37 10° NNE
Cosmos 158 Rocket 4.1 22:16:53 10° NNW 22:22:14 76° ENE 22:26:23 16° SSE
Cosmos 968 Rocket 4.1 22:17:50 10° SW 22:22:55 59° WNW 22:28:06 10° NNE
BREEZE-M DEB (TANK) 3.2 22:20:54 10° WSW 22:23:40 64° S 22:30:50 10° E
Cosmos 1932 4.4 22:19:42 10° SW 22:26:03 82° SE 22:32:20 10° NE
Cosmos 1570 Rocket 4.1 22:20:46 10° NNW 22:26:07 77° WSW 22:30:19 17° SSE
BREEZE-M DEB (TANK) 4.1 22:25:17 10° WSW 22:27:00 17° SSW 22:27:27 17° S
MINOTAUR 4 R/B 4.5 22:25:04 10° NNE 22:27:44 31° E 22:28:58 22° SE
Cosmos 2219 Rocket 2.9 22:22:26 10° NW 22:27:48 45° WSW 22:32:21 14° S
Cosmos 1408 3.3 22:27:18 20° SE 22:28:34 28° E 22:31:13 10° NNE
ATLAS CENTAUR R/B 2.4 22:25:16 10° WSW 22:28:38 41° NW 22:32:08 10° NNE
EXPRESS MD2 2.0 22:27:41 10° W 22:29:57 49° S 22:30:57 24° ESE
CZ-4C R/B 3.0 22:28:53 18° SSE 22:31:10 25° ESE 22:35:35 10° ENE
COSMOS 2428 2.8 22:28:25 10° NNW 22:34:08 77° WSW 22:38:32 17° SSE
CZ-2C R/B 3.6 22:33:37 10° NNE 22:38:03 71° ESE 22:41:28 17° S
BREEZE-M DEB (TANK) 3.8 22:22:22 10° W 22:38:18 75° S 22:42:24 10° E
CENTAUR R/B 4.2 22:37:02 10° SE 22:39:21 12° E 22:41:52 10° ENE
Cosmos 1953 3.3 22:36:06 10° NNW 22:39:40 38° W 22:42:38 14° SSW
USA 234 3.3 22:34:42 10° ENE 22:41:17 88° NNW 22:47:51 10° WSW
Okean 2 4.1 22:38:20 10° SSW 22:42:14 50° WNW 22:46:11 10° N
Okean 1-7 3.7 22:38:39 10° SSW 22:42:53 51° WNW 22:47:06 10° N
Cosmos 405 Rocket 4.0 22:40:12 10° N 22:43:33 29° ENE 22:46:03 15° ESE
BlueWalker 3 2.2 22:40:10 10° SW 22:43:41 40° SSE 22:47:13 10° ENE
Cosmos 1315 Rocket 3.7 22:41:49 10° SSW 22:45:39 46° WNW 22:49:32 10° N
Terra 4.3 22:44:38 10° WSW 22:46:51 13° W 22:49:03 10° WNW
ARIANE 5 R/B 2.7 22:45:12 19° S 22:48:14 66° WSW 22:52:35 10° NNW
Cosmos 773 Rocket 4.1 22:43:44 10° NNW 22:48:53 71° ENE 22:52:47 18° SE
Cosmos 1455 3.5 22:49:01 10° NNW 22:52:04 28° W 22:54:36 13° SSW
Cosmos 2360 Rocket 4.3 22:49:23 10° WNW 22:52:55 17° W 22:56:25 10° SW
Cosmos 371 Rocket 3.7 22:53:41 20° S 22:56:41 46° ESE 23:01:17 10° NE
PSLV R/B 3.8 22:54:34 10° NNE 22:58:36 83° ESE 23:01:18 20° SSW
Cosmos 1782 Rocket 3.9 22:55:20 10° NNW 22:59:36 57° W 23:02:30 19° S
GP-B 3.6 22:55:46 10° N 23:00:06 55° W 23:03:32 15° SSW
Cosmos 2208 Rocket 4.4 22:57:01 10° NNW 23:02:05 52° WSW 23:05:33 19° S
Cosmos 1745 Rocket 4.1 22:59:46 15° SSW 23:05:14 82° W 23:11:39 10° N
Cosmos 1892 4.3 23:05:53 15° ESE 23:07:20 19° E 23:09:55 10° NE
GENESIS II 4.2 23:03:48 10° SW 23:07:27 73° NW 23:11:06 10° NE
H-2A R/B 3.8 23:05:55 10° NE 23:08:59 19° E 23:10:59 14° SE
Nadezhda 1 Rocket 4.4 23:04:01 10° NNW 23:10:09 56° W 23:15:01 16° SSW
Cosmos 1503 Rocket 4.5 23:07:09 20° S 23:10:29 47° ESE 23:15:33 10° NE
Cosmos 2333 Rocket 4.4 23:09:54 10° WNW 23:12:31 13° W 23:15:08 10° WSW
NOSS 8 (H) 4.4 23:11:36 21° SSW 23:13:47 54° SE 23:16:44 10° NE
Cosmos 1703 3.1 23:12:38 26° S 23:14:33 66° E 23:18:14 10° NNE
Cosmos 1300 Rocket 4.1 23:10:52 10° NNW 23:15:01 48° W 23:17:47 20° SSW
Cosmos 1242 Rocket 4.2 23:19:04 10° WSW 23:21:11 20° WNW 23:23:19 10° NNW
Cosmos 2181 Rocket 4.1 23:16:13 10° N 23:22:25 71° ENE 23:26:52 20° SSE
SL-16 R/B 3.2 23:18:41 10° NNW 23:24:09 45° NE 23:29:36 10° ESE
NOSS 8 (A) 4.4 23:21:22 10° NW 23:24:16 65° NE 23:26:36 18° ESE
NOSS 8 (F) 4.3 23:22:47 10° SW 23:26:31 83° NW 23:29:33 10° NE
COSMOS 2455 2.8 23:21:34 13° SSW 23:27:04 77° SE 23:33:08 10° NE
Cosmos 1825 3.3 23:26:52 21° SE 23:28:14 28° E 23:31:13 10° NNE
Cosmos 2151 Rocket 3.7 23:23:57 10° N 23:28:22 66° ENE 23:31:01 23° SSE
Spot 4 4.2 23:26:57 21° S 23:29:59 55° W 23:34:44 10° NNW
BREEZE-M DEB (TANK) 3.6 23:29:09 27° SSW 23:30:10 37° SSE 23:34:58 10° E
Cosmos 2237 Rocket 2.2 23:24:34 10° NW 23:30:14 70° WSW 23:34:01 21° SSE
Cosmos 2098 Rocket 4.1 23:27:07 10° NNW 23:33:46 82° W 23:38:17 21° S
Okean 2 Rocket 3.2 23:30:09 10° N 23:34:39 70° ENE 23:37:23 23° SSE
USA 281 4.0 23:30:32 17° SSW 23:35:01 39° WSW 23:41:08 10° NW
H-2A R/B 3.4 23:34:22 20° SSW 23:36:51 38° W 23:40:51 10° NNW
Cosmos 1486 Rocket 4.1 23:32:32 15° SSW 23:36:53 77° WNW 23:42:07 10° NNE
Cosmos 1674 Rocket 4.0 23:35:17 24° SSE 23:37:40 49° E 23:41:52 10° NNE
Cosmos 1378 Rocket 3.8 23:35:17 24° SSE 23:37:43 58° E 23:42:03 10° NNE
ALOS 2 2.8 23:35:18 24° S 23:37:51 61° W 23:42:13 10° NNW
Cosmos 2227 Rocket 2.9 23:35:09 21° SSE 23:38:22 40° ESE 23:43:37 10° NE
Cosmos 304 Rocket 3.7 23:38:29 20° SSW 23:41:50 90° WNW 23:46:38 10° NNE
Cosmos 1980 4.0 23:38:04 10° NW 23:43:35 54° WSW 23:47:07 22° S
SL-4 R/B 2.9 23:42:33 10° W 23:46:05 29° SSW 23:47:04 26° S
Meteor 1-24 Rocket 3.8 23:42:33 19° SSW 23:46:44 82° WNW 23:52:22 10° NNE
SOZ 4.4 23:44:49 10° W 23:47:22 82° SSW 23:50:21 10° ESE
Cosmos 332 Rocket 4.1 23:48:04 24° S 23:50:51 53° ESE 23:55:38 10° NNE
Cosmos 1354 Rocket 4.0 23:49:34 21° SSW 23:53:09 76° ESE 23:58:28 10° NNE
SJ 16-02 4.1 23:53:31 10° WNW 23:55:49 14° NW 23:58:07 10° NNW
